When you browse on this site, cookies collect data to enhance your experience and personalize the content and advertising you see.
Visit our Privacy Policy to learn more. By continuing to use the site, you agree to this use of cookies and data.
  • In Portugal
  • List of Countries
  • For 7 days
  • Water Temperature
  • Satellite Maps
  • Weather Map
  • Weather Widgets
  • user-avatar
    Login

    Hourly Weather Newport

    Today, 18 July, Thursday

    Time Temperature Precipitation Wind Pressure Humidity
    00:00 +16°C° 0 mm 5 mps 756 mmHg 98%
    01:00 +16°C° 0.1 mm 5 mps 755 mmHg 98%
    02:00 +17°C° 0.1 mm 4 mps 755 mmHg 98%
    03:00 +15°C° 0.1 mm 4 mps 755 mmHg 97%
    04:00 +15°C° 0 mm 4 mps 755 mmHg 97%
    05:00 +16°C° 0 mm 3 mps 755 mmHg 96%
    06:00 +14°C° 0 mm 3 mps 756 mmHg 95%
    07:00 +15°C° 0 mm 4 mps 756 mmHg 90%
    08:00 +17°C° 0 mm 4 mps 756 mmHg 86%
    09:00 +18°C° 0 mm 4 mps 756 mmHg 81%
    10:00 +17°C° 0.1 mm 5 mps 756 mmHg 78%
    11:00 +17°C° 0.1 mm 5 mps 757 mmHg 76%
    12:00 +19°C° 0.1 mm 6 mps 757 mmHg 73%
    13:00 +19°C° 0 mm 6 mps 757 mmHg 72%
    14:00 +19°C° 0 mm 6 mps 757 mmHg 70%
    15:00 +19°C° 0 mm 6 mps 757 mmHg 69%
    16:00 +19°C° 0 mm 6 mps 757 mmHg 73%
    17:00 +17°C° 0 mm 6 mps 757 mmHg 76%
    18:00 +17°C° 0 mm 6 mps 757 mmHg 80%
    19:00 +16°C° 0 mm 5 mps 757 mmHg 84%
    20:00 +15°C° 0 mm 4 mps 757 mmHg 89%
    21:00 +13°C° 0 mm 4 mps 758 mmHg 93%
    22:00 +13°C° 0.1 mm 3 mps 757 mmHg 93%
    23:00 +13°C° 0.1 mm 3 mps 757 mmHg 93%

    Tomorrow, 19 July, Friday

    Time Temperature Precipitation Wind Pressure Humidity
    00:00 +13°C° 0.1 mm 3 mps 757 mmHg 94%
    01:00 +14°C° 0.1 mm 4 mps 757 mmHg 94%
    02:00 +14°C° 0.1 mm 4 mps 757 mmHg 95%
    03:00 +14°C° 0.1 mm 5 mps 756 mmHg 96%
    04:00 +14°C° 1.3 mm 5 mps 756 mmHg 96%
    05:00 +14°C° 1.3 mm 5 mps 755 mmHg 97%
    06:00 +14°C° 1.3 mm 5 mps 755 mmHg 97%
    07:00 +14°C° 1.1 mm 5 mps 755 mmHg 97%
    08:00 +15°C° 1.1 mm 5 mps 754 mmHg 98%
    09:00 +16°C° 1.1 mm 5 mps 754 mmHg 98%
    10:00 +17°C° 0.6 mm 6 mps 754 mmHg 96%
    11:00 +18°C° 0.6 mm 7 mps 754 mmHg 94%
    12:00 +20°C° 0.6 mm 8 mps 753 mmHg 92%
    13:00 +19°C° 0.5 mm 9 mps 753 mmHg 92%
    14:00 +19°C° 0.5 mm 9 mps 753 mmHg 91%
    15:00 +19°C° 0.5 mm 10 mps 753 mmHg 91%
    16:00 +18°C° 0.2 mm 9 mps 753 mmHg 90%
    17:00 +18°C° 0.2 mm 8 mps 753 mmHg 90%
    18:00 +17°C° 0.2 mm 8 mps 753 mmHg 89%
    19:00 +17°C° 0.1 mm 7 mps 753 mmHg 90%
    20:00 +17°C° 0.1 mm 7 mps 753 mmHg 90%
    21:00 +16°C° 0.1 mm 7 mps 753 mmHg 91%
    22:00 +16°C° 0.2 mm 7 mps 753 mmHg 92%
    23:00 +16°C° 0.2 mm 7 mps 753 mmHg 92%

    Day after tomorrow, 20 July, Saturday

    Time Temperature Precipitation Wind Pressure Humidity
    00:00 +16°C° 0.2 mm 7 mps 753 mmHg 93%
    01:00 +16°C° 0.2 mm 7 mps 753 mmHg 93%
    02:00 +16°C° 0.2 mm 6 mps 753 mmHg 94%
    03:00 +16°C° 0.2 mm 6 mps 753 mmHg 95%
    04:00 +16°C° 0.4 mm 6 mps 753 mmHg 95%
    05:00 +16°C° 0.4 mm 6 mps 753 mmHg 95%
    06:00 +16°C° 0.4 mm 6 mps 752 mmHg 96%
    07:00 +16°C° 0.9 mm 6 mps 753 mmHg 95%
    08:00 +17°C° 0.9 mm 6 mps 753 mmHg 94%
    09:00 +17°C° 0.9 mm 6 mps 754 mmHg 92%
    10:00 +19°C° 0.1 mm 6 mps 754 mmHg 87%
    11:00 +20°C° 0.1 mm 6 mps 755 mmHg 82%
    12:00 +21°C° 0.1 mm 6 mps 755 mmHg 77%
    13:00 +20°C° 0.1 mm 6 mps 755 mmHg 78%
    14:00 +20°C° 0.1 mm 5 mps 756 mmHg 79%
    15:00 +20°C° 0.1 mm 5 mps 756 mmHg 80%
    16:00 +20°C° 0 mm 5 mps 756 mmHg 80%
    17:00 +20°C° 0 mm 5 mps 757 mmHg 80%
    18:00 +19°C° 0 mm 5 mps 757 mmHg 81%
    19:00 +18°C° 0 mm 4 mps 758 mmHg 85%
    20:00 +16°C° 0 mm 3 mps 759 mmHg 89%
    21:00 +15°C° 0 mm 2 mps 760 mmHg 94%
    22:00 +15°C° 0 mm 2 mps 760 mmHg 94%
    23:00 +14°C° 0 mm 1 mps 760 mmHg 94%

    21 July, Sunday

    Time Temperature Precipitation Wind Pressure Humidity
    00:00 +14°C° 0 mm 1 mps 760 mmHg 94%
    01:00 +14°C° 0 mm 1 mps 760 mmHg 94%
    02:00 +14°C° 0 mm 1 mps 761 mmHg 94%
    03:00 +14°C° 0 mm 1 mps 761 mmHg 94%
    04:00 +14°C° 0 mm 2 mps 761 mmHg 94%
    05:00 +15°C° 0 mm 2 mps 762 mmHg 95%
    06:00 +16°C° 0 mm 2 mps 762 mmHg 95%
    07:00 +17°C° 0 mm 3 mps 762 mmHg 91%
    08:00 +18°C° 0 mm 3 mps 763 mmHg 86%
    09:00 +19°C° 0 mm 4 mps 763 mmHg 82%
    10:00 +19°C° 0 mm 4 mps 763 mmHg 79%
    11:00 +20°C° 0 mm 4 mps 763 mmHg 77%
    12:00 +20°C° 0 mm 5 mps 764 mmHg 75%
    13:00 +20°C° 0 mm 5 mps 764 mmHg 75%
    14:00 +20°C° 0 mm 5 mps 764 mmHg 76%
    15:00 +20°C° 0 mm 5 mps 764 mmHg 77%
    16:00 +20°C° 0 mm 5 mps 764 mmHg 78%
    17:00 +19°C° 0 mm 4 mps 764 mmHg 79%
    18:00 +19°C° 0 mm 3 mps 764 mmHg 80%
    19:00 +18°C° 0 mm 3 mps 764 mmHg 85%
    20:00 +16°C° 0 mm 3 mps 764 mmHg 89%
    21:00 +14°C° 0 mm 3 mps 765 mmHg 94%
    22:00 +14°C° 0 mm 3 mps 764 mmHg 94%
    23:00 +14°C° 0 mm 3 mps 764 mmHg 95%

    22 July, Monday

    Time Temperature Precipitation Wind Pressure Humidity
    00:00 +14°C° 0 mm 3 mps 764 mmHg 96%
    01:00 +14°C° 0 mm 3 mps 764 mmHg 96%
    02:00 +14°C° 0 mm 3 mps 764 mmHg 96%
    03:00 +13°C° 0 mm 3 mps 763 mmHg 96%
    04:00 +14°C° 0 mm 3 mps 763 mmHg 95%
    05:00 +14°C° 0 mm 3 mps 764 mmHg 95%
    06:00 +16°C° 0 mm 3 mps 764 mmHg 95%
    07:00 +17°C° 0 mm 3 mps 764 mmHg 90%
    08:00 +18°C° 0 mm 3 mps 764 mmHg 85%
    09:00 +19°C° 0 mm 3 mps 764 mmHg 81%
    10:00 +20°C° 0 mm 3 mps 764 mmHg 77%
    11:00 +21°C° 0 mm 3 mps 764 mmHg 73%
    12:00 +22°C° 0 mm 3 mps 764 mmHg 70%
    13:00 +23°C° 0 mm 2 mps 764 mmHg 69%
    14:00 +24°C° 0 mm 2 mps 764 mmHg 67%
    15:00 +24°C° 0 mm 2 mps 763 mmHg 66%
    16:00 +24°C° 0 mm 2 mps 763 mmHg 69%
    17:00 +23°C° 0 mm 1 mps 763 mmHg 72%
    18:00 +23°C° 0 mm 1 mps 763 mmHg 74%
    19:00 +22°C° 0 mm 1 mps 763 mmHg 79%
    20:00 +20°C° 0 mm 1 mps 763 mmHg 84%
    21:00 +16°C° 0 mm 0 mps 763 mmHg 89%
    22:00 +18°C° 0 mm 1 mps 762 mmHg 89%
    23:00 +18°C° 0 mm 1 mps 762 mmHg 89%

    23 July, Tuesday

    Time Temperature Precipitation Wind Pressure Humidity
    00:00 +16°C° 0 mm 2 mps 762 mmHg 89%
    01:00 +16°C° 0 mm 2 mps 762 mmHg 88%
    02:00 +16°C° 0 mm 2 mps 761 mmHg 88%
    03:00 +16°C° 0 mm 3 mps 761 mmHg 88%
    04:00 +17°C° 0 mm 3 mps 760 mmHg 87%
    05:00 +17°C° 0 mm 3 mps 760 mmHg 86%
    06:00 +18°C° 0 mm 3 mps 759 mmHg 85%
    07:00 +20°C° 0 mm 4 mps 759 mmHg 81%
    08:00 +22°C° 0 mm 4 mps 759 mmHg 77%
    09:00 +25°C° 0 mm 5 mps 759 mmHg 73%
    10:00 +26°C° 0 mm 5 mps 758 mmHg 72%
    11:00 +27°C° 0 mm 5 mps 758 mmHg 71%
    12:00 +28°C° 0 mm 5 mps 758 mmHg 70%
    13:00 +29°C° 0 mm 5 mps 758 mmHg 71%
    14:00 +29°C° 0 mm 5 mps 757 mmHg 71%
    15:00 +29°C° 0 mm 5 mps 757 mmHg 71%
    16:00 +28°C° 0.7 mm 4 mps 757 mmHg 77%
    17:00 +26°C° 0.7 mm 3 mps 756 mmHg 83%
    18:00 +25°C° 0.7 mm 3 mps 756 mmHg 89%
    19:00 +24°C° 0.1 mm 3 mps 756 mmHg 90%
    20:00 +23°C° 0.1 mm 2 mps 756 mmHg 92%
    21:00 +21°C° 0.1 mm 2 mps 757 mmHg 93%
    22:00 +20°C° 0 mm 2 mps 757 mmHg 93%
    23:00 +19°C° 0 mm 3 mps 757 mmHg 94%
    Show more